Time,TemperatureF,DewpointF,PressureIn,WindDirection,WindDirectionDegrees,WindSpeedMPH,WindSpeedGustMPH,Humidity,HourlyPrecipIn,Conditions,Clouds,dailyrainin,SoftwareType,DateUTC
2013-09-09 00:13:00,80.0,66.0,29.86,SSE,157,0.0,3.0,62,0.00,,,0.00,,2013-09-09 05:13:00,
2013-09-09 00:23:00,80.0,66.0,29.86,South,173,0.0,3.0,63,0.00,,,0.00,,2013-09-09 05:23:00,
2013-09-09 00:53:00,79.0,65.0,29.87,South,189,0.0,6.0,62,0.00,,,0.00,,2013-09-09 05:53:00,
2013-09-09 01:12:00,79.0,65.0,29.86,SSE,161,0.0,6.0,63,0.00,,,0.00,,2013-09-09 06:12:00,
2013-09-09 01:21:00,79.0,65.0,29.86,SE,130,0.0,6.0,63,0.00,,,0.00,,2013-09-09 06:21:00,
2013-09-09 01:52:00,78.0,65.0,29.86,WSW,248,0.0,5.0,64,0.00,,,0.00,,2013-09-09 06:52:00,
2013-09-09 02:11:00,77.0,64.0,29.86,South,191,0.0,3.0,65,0.00,,,0.00,,2013-09-09 07:11:00,
2013-09-09 02:22:00,77.0,64.0,29.87,South,175,0.0,4.0,65,0.00,,,0.00,,2013-09-09 07:22:00,
2013-09-09 02:52:00,76.0,64.0,29.87,WSW,237,0.0,4.0,67,0.00,,,0.00,,2013-09-09 07:52:00,
2013-09-09 03:11:00,76.0,65.0,29.88,SSW,196,0.0,1.0,68,0.00,,,0.00,,2013-09-09 08:11:00,
2013-09-09 03:22:00,75.0,64.0,29.87,SW,215,0.0,1.0,69,0.00,,,0.00,,2013-09-09 08:22:00,
2013-09-09 03:52:00,75.0,65.0,29.87,South,186,0.0,5.0,70,0.00,,,0.00,,2013-09-09 08:52:00,
2013-09-09 04:12:00,75.0,65.0,29.87,SW,233,0.0,5.0,70,0.00,,,0.00,,2013-09-09 09:12:00,
2013-09-09 04:22:00,74.0,64.0,29.87,SW,218,0.0,3.0,70,0.00,,,0.00,,2013-09-09 09:22:00,
2013-09-09 04:53:00,74.0,64.0,29.88,ESE,121,0.0,6.0,71,0.00,,,0.00,,2013-09-09 09:53:00,
2013-09-09 05:12:00,74.0,64.0,29.88,South,169,0.0,1.0,71,0.00,,,0.00,,2013-09-09 10:12:00,
2013-09-09 05:23:00,74.0,64.0,29.88,ESE,122,0.0,2.0,71,0.00,,,0.00,,2013-09-09 10:23:00,
2013-09-09 05:52:00,73.0,63.0,29.88,West,277,1.0,8.0,71,0.00,,,0.00,,2013-09-09 10:52:00,
2013-09-09 06:12:00,73.0,63.0,29.89,West,279,0.0,3.0,71,0.00,,,0.00,,2013-09-09 11:12:00,
2013-09-09 06:22:00,73.0,63.0,29.89,SSE,148,0.0,1.0,72,0.00,,,0.00,,2013-09-09 11:22:00,
2013-09-09 06:52:00,73.0,64.0,29.88,SW,215,0.0,2.0,73,0.00,,,0.00,,2013-09-09 11:52:00,
2013-09-09 07:12:00,73.0,64.0,29.89,SW,227,0.0,4.0,73,0.00,,,0.00,,2013-09-09 12:12:00,
2013-09-09 07:22:00,73.0,63.0,29.90,WSW,240,0.0,1.0,72,0.00,,,0.00,,2013-09-09 12:22:00,
2013-09-09 07:52:00,73.0,63.0,29.91,SW,236,0.0,6.0,72,0.00,,,0.00,,2013-09-09 12:52:00,
2013-09-09 08:11:00,73.0,63.0,29.91,SSE,164,0.0,3.0,71,0.00,,,0.00,,2013-09-09 13:11:00,
2013-09-09 08:21:00,74.0,64.0,29.91,WSW,244,0.0,7.0,70,0.00,,,0.00,,2013-09-09 13:21:00,
2013-09-09 08:52:00,75.0,64.0,29.91,WSW,255,0.0,7.0,69,0.00,,,0.00,,2013-09-09 13:52:00,
2013-09-09 09:12:00,75.0,64.0,29.92,SSE,153,0.0,1.0,68,0.00,,,0.00,,2013-09-09 14:12:00,
2013-09-09 09:22:00,76.0,64.0,29.92,SSE,162,0.0,1.0,67,0.00,,,0.00,,2013-09-09 14:22:00,
2013-09-09 09:52:00,79.0,64.0,29.93,South,175,0.0,6.0,61,0.00,,,0.00,,2013-09-09 14:52:00,
2013-09-09 10:11:00,80.0,64.0,29.93,WNW,289,0.0,10.0,59,0.00,,,0.00,,2013-09-09 15:11:00,
2013-09-09 10:22:00,82.0,65.0,29.93,SW,229,1.0,7.0,56,0.00,,,0.00,,2013-09-09 15:22:00,
2013-09-09 10:53:00,86.0,66.0,29.93,WSW,253,0.0,5.0,52,0.00,,,0.00,,2013-09-09 15:53:00,
2013-09-09 11:13:00,87.0,66.0,29.93,SE,145,2.0,6.0,50,0.00,,,0.00,,2013-09-09 16:13:00,
2013-09-09 11:24:00,88.0,66.0,29.94,WSW,240,1.0,7.0,49,0.00,,,0.00,,2013-09-09 16:24:00,
2013-09-09 11:54:00,89.0,66.0,29.94,SSW,207,0.0,7.0,47,0.00,,,0.00,,2013-09-09 16:54:00,
2013-09-09 12:12:00,90.0,67.0,29.93,SSW,201,0.0,8.0,47,0.00,,,0.00,,2013-09-09 17:12:00,
2013-09-09 12:23:00,91.0,67.0,29.93,ESE,123,0.0,12.0,46,0.00,,,0.00,,2013-09-09 17:23:00,
2013-09-09 12:52:00,92.0,67.0,29.93,SSW,198,1.0,10.0,44,0.00,,,0.00,,2013-09-09 17:52:00,
2013-09-09 13:13:00,93.0,67.0,29.92,South,177,0.0,9.0,43,0.00,,,0.00,,2013-09-09 18:13:00,
2013-09-09 13:22:00,94.0,66.0,29.91,WNW,300,1.0,10.0,40,0.00,,,0.00,,2013-09-09 18:22:00,
2013-09-09 13:52:00,94.0,66.0,29.91,SW,214,2.0,11.0,40,0.00,,,0.00,,2013-09-09 18:52:00,
2013-09-09 14:12:00,94.0,66.0,29.91,SSW,196,1.0,12.0,40,0.00,,,0.00,,2013-09-09 19:12:00,
2013-09-09 14:22:00,94.0,65.0,29.90,WNW,292,1.0,10.0,39,0.00,,,0.00,,2013-09-09 19:22:00,
2013-09-09 14:43:00,94.0,67.0,29.90,SE,146,1.0,10.0,41,0.00,,,0.00,,2013-09-09 19:43:00,
2013-09-09 14:52:00,95.0,65.0,29.89,WSW,240,2.0,13.0,38,0.00,,,0.00,,2013-09-09 19:52:00,
2013-09-09 15:12:00,96.0,65.0,29.89,SSE,159,1.0,10.0,36,0.00,,,0.00,,2013-09-09 20:12:00,
2013-09-09 15:22:00,97.0,66.0,29.88,South,178,0.0,6.0,36,0.00,,,0.00,,2013-09-09 20:22:00,
2013-09-09 15:53:00,96.0,65.0,29.88,SSW,194,0.0,12.0,36,0.00,,,0.00,,2013-09-09 20:53:00,
2013-09-09 16:12:00,96.0,64.0,29.88,SSW,195,2.0,12.0,35,0.00,,,0.00,,2013-09-09 21:12:00,
2013-09-09 16:22:00,96.0,64.0,29.88,SSE,158,2.0,9.0,35,0.00,,,0.00,,2013-09-09 21:22:00,
2013-09-09 16:54:00,95.0,65.0,29.88,East,98,1.0,8.0,37,0.00,,,0.00,,2013-09-09 21:54:00,
2013-09-09 17:24:00,95.0,63.0,29.88,SSE,161,1.0,9.0,35,0.00,,,0.00,,2013-09-09 22:24:00,
2013-09-09 17:54:00,94.0,63.0,29.88,SE,145,1.0,8.0,36,0.00,,,0.00,,2013-09-09 22:54:00,
2013-09-09 18:12:00,94.0,63.0,29.88,SE,140,2.0,9.0,36,0.00,,,0.00,,2013-09-09 23:12:00,
2013-09-09 18:22:00,93.0,63.0,29.88,South,191,0.0,9.0,37,0.00,,,0.00,,2013-09-09 23:22:00,
2013-09-09 18:52:00,90.0,62.0,29.88,WSW,254,0.0,6.0,39,0.00,,,0.00,,2013-09-09 23:52:00,
2013-09-09 19:12:00,89.0,61.0,29.88,SW,222,0.0,6.0,40,0.00,,,0.00,,2013-09-10 00:12:00,
2013-09-09 19:21:00,88.0,61.0,29.88,SSE,165,0.0,6.0,41,0.00,,,0.00,,2013-09-10 00:21:00,
2013-09-09 19:42:00,88.0,62.0,29.88,SE,134,0.0,2.0,42,0.00,,,0.00,,2013-09-10 00:42:00,
2013-09-09 19:52:00,87.0,62.0,29.89,ESE,114,0.0,2.0,44,0.00,,,0.00,,2013-09-10 00:52:00,
2013-09-09 20:11:00,85.0,62.0,29.89,ESE,114,0.0,1.0,46,0.00,,,0.00,,2013-09-10 01:11:00,
2013-09-09 20:21:00,84.0,62.0,29.89,SSE,160,0.0,2.0,48,0.00,,,0.00,,2013-09-10 01:21:00,
2013-09-09 20:42:00,83.0,62.0,29.90,SSW,194,0.0,2.0,49,0.00,,,0.00,,2013-09-10 01:42:00,
2013-09-09 20:52:00,82.0,61.0,29.90,SSW,194,0.0,1.0,50,0.00,,,0.00,,2013-09-10 01:52:00,
2013-09-09 21:12:00,81.0,61.0,29.91,SSW,194,0.0,1.0,51,0.00,,,0.00,,2013-09-10 02:12:00,
2013-09-09 21:22:00,80.0,60.0,29.91,SSE,158,0.0,2.0,51,0.00,,,0.00,,2013-09-10 02:22:00,
2013-09-09 21:42:00,80.0,60.0,29.91,SSE,159,0.0,1.0,51,0.00,,,0.00,,2013-09-10 02:42:00,
2013-09-09 21:52:00,80.0,61.0,29.92,SSE,161,0.0,1.0,52,0.00,,,0.00,,2013-09-10 02:52:00,
2013-09-09 22:12:00,79.0,61.0,29.92,SSE,160,0.0,1.0,54,0.00,,,0.00,,2013-09-10 03:12:00,
2013-09-09 22:22:00,79.0,61.0,29.92,SSE,160,0.0,1.0,55,0.00,,,0.00,,2013-09-10 03:22:00,
2013-09-09 22:54:00,79.0,62.0,29.93,SSE,161,0.0,2.0,56,0.00,,,0.00,,2013-09-10 03:54:00,
2013-09-09 23:24:00,78.0,62.0,29.94,SSE,167,0.0,3.0,57,0.00,,,0.00,,2013-09-10 04:24:00,
2013-09-09 23:53:00,78.0,62.0,29.94,SSE,162,0.0,3.0,59,0.00,,,0.00,,2013-09-10 04:53:00,